Location: Center Berlin
(42.6609°N, 73.3687°W)
Time: 21:02:09
(UTC+00:00)

Cosmos 1743 - Pass Details

Date: 10 September 2024
Orbit: 464 x 474 km, 82.5° (Epoch: 13 October)

Event Time Altitude Azimuth Distance (km) Brightness Sun altitude
Rises 23:52:34 0° 182° (S) 2,507 6.1 -8.3°
Reaches altitude 10° 23:54:39 10° 180° (S) 1,632 5.1 -8.7°
Maximum altitude 23:58:12 71° 97° (E) 503 2.4 -9.3°
Drops below altitude 10° 00:01:45 10° 13° (NNE) 1,637 5.3 -10.0°
Sets 00:03:51 0° 11° (N) 2,516 6.3 -10.3°
